Voltar ao catálogo

STARLINK-35804

AtivoComunicaçõesVLEO
NORAD 66371·PAYLOAD·🇺🇸 United States

Lançado Nov 6, 2025 de Vandenberg Space Force Base

Loading…

Próximas Passagens (próximas 24 horas)

TLE

AtualizadoSource: CelesTrak SupGP

Época: Sep 15, 2026, 02:31 UTC

1 66371C 25254Z   26258.10534722 -.00028117  00000+0 -83059-3 0  2584
2 66371  53.1577  68.5861 0001072  79.1819 239.9178 15.34409726    13

Acompanhe STARLINK-35804 em tempo real com AllMySat

Download on the App Store